Location: Aboncourt
(47.7710°N, 5.9826°E)
Time: 03:27:20
(UTC+00:00)

Cosmos 158 Rocket - Pass Details

Date: 05 July 2020
Orbit: 698 x 794 km, 74.0° (Epoch: 03 August)

Event Time Altitude Azimuth Distance (km) Brightness Sun altitude
Exits shadow 22:52:56 23° 220° (SW) 1,484 5.1 -18.7°
Maximum altitude 22:55:57 63° 295° (WNW) 786 4.2 -18.8°
Drops below altitude 10° 23:00:50 10° 17° (NNE) 2,187 7.3 -19.0°
Sets 23:03:13 0° 21° (NNE) 3,120 8.2 -19.1°
